Time,TemperatureF,DewpointF,PressureIn,WindDirection,WindDirectionDegrees,WindSpeedMPH,WindSpeedGustMPH,Humidity,HourlyPrecipIn,Conditions,Clouds,dailyrainin,SoftwareType,DateUTC
2013-02-01 00:04:00,59.0,-99.9,30.18,NW,313,11.0,14.0,-999,-99.99,,,-99.99,,2013-02-01 05:04:00,
2013-02-01 00:12:00,59.0,-99.9,30.18,NW,317,11.0,15.0,-999,-99.99,,,-99.99,,2013-02-01 05:12:00,
2013-02-01 00:22:00,59.0,-99.9,30.18,NW,317,13.0,16.0,-999,-99.99,,,-99.99,,2013-02-01 05:22:00,
2013-02-01 00:32:00,59.0,-99.9,30.18,NW,320,15.0,19.0,-999,-99.99,,,-99.99,,2013-02-01 05:32:00,
2013-02-01 00:42:00,59.0,-99.9,30.18,NW,324,15.0,19.0,-999,-99.99,,,-99.99,,2013-02-01 05:42:00,
2013-02-01 00:52:00,59.0,-99.9,30.17,NW,326,15.0,20.0,-999,-99.99,,,-99.99,,2013-02-01 05:52:00,
2013-02-01 01:02:00,58.0,-99.9,30.17,NW,322,14.0,19.0,-999,-99.99,,,-99.99,,2013-02-01 06:02:00,
2013-02-01 01:12:00,58.0,-99.9,30.17,NW,317,12.0,17.0,-999,-99.99,,,-99.99,,2013-02-01 06:12:00,
2013-02-01 01:22:00,58.0,-99.9,30.17,NW,317,13.0,17.0,-999,-99.99,,,-99.99,,2013-02-01 06:22:00,
2013-02-01 01:32:00,58.0,-99.9,30.17,NW,315,13.0,18.0,-999,-99.99,,,-99.99,,2013-02-01 06:32:00,
2013-02-01 01:42:00,58.0,-99.9,30.18,NW,316,13.0,17.0,-999,-99.99,,,-99.99,,2013-02-01 06:42:00,
2013-02-01 01:52:00,58.0,-99.9,30.18,NW,317,15.0,18.0,-999,-99.99,,,-99.99,,2013-02-01 06:52:00,
2013-02-01 02:02:00,57.0,-99.9,30.18,NW,315,16.0,19.0,-999,-99.99,,,-99.99,,2013-02-01 07:02:00,
2013-02-01 02:12:00,57.0,-99.9,30.18,NW,317,15.0,20.0,-999,-99.99,,,-99.99,,2013-02-01 07:12:00,
2013-02-01 02:22:00,57.0,-99.9,30.18,NW,316,13.0,17.0,-999,-99.99,,,-99.99,,2013-02-01 07:22:00,
2013-02-01 02:32:00,57.0,-99.9,30.18,NW,314,13.0,15.0,-999,-99.99,,,-99.99,,2013-02-01 07:32:00,
2013-02-01 02:42:00,57.0,-99.9,30.17,NW,312,13.0,16.0,-999,-99.99,,,-99.99,,2013-02-01 07:42:00,
2013-02-01 02:52:00,57.0,-99.9,30.17,NW,309,13.0,16.0,-999,-99.99,,,-99.99,,2013-02-01 07:52:00,
2013-02-01 03:01:00,56.0,-99.9,30.18,NW,310,14.0,17.0,-999,-99.99,,,-99.99,,2013-02-01 08:01:00,
2013-02-01 03:11:00,56.0,-99.9,30.18,NW,316,12.0,17.0,-999,-99.99,,,-99.99,,2013-02-01 08:11:00,
2013-02-01 03:22:00,56.0,-99.9,30.18,NW,315,14.0,16.0,-999,-99.99,,,-99.99,,2013-02-01 08:22:00,
2013-02-01 03:32:00,56.0,-99.9,30.17,NW,315,15.0,19.0,-999,-99.99,,,-99.99,,2013-02-01 08:32:00,
2013-02-01 03:42:00,57.0,-99.9,30.18,NW,319,15.0,22.0,-999,-99.99,,,-99.99,,2013-02-01 08:42:00,
2013-02-01 03:52:00,57.0,-99.9,30.17,NW,322,15.0,19.0,-999,-99.99,,,-99.99,,2013-02-01 08:52:00,
2013-02-01 04:02:00,56.0,-99.9,30.17,NW,317,15.0,18.0,-999,-99.99,,,-99.99,,2013-02-01 09:02:00,
2013-02-01 04:11:00,56.0,-99.9,30.17,NW,317,15.0,20.0,-999,-99.99,,,-99.99,,2013-02-01 09:11:00,
2013-02-01 04:22:00,56.0,-99.9,30.17,NW,313,12.0,18.0,-999,-99.99,,,-99.99,,2013-02-01 09:22:00,
2013-02-01 04:32:00,56.0,-99.9,30.17,NW,313,13.0,18.0,-999,-99.99,,,-99.99,,2013-02-01 09:32:00,
2013-02-01 04:42:00,56.0,-99.9,30.17,NW,318,14.0,18.0,-999,-99.99,,,-99.99,,2013-02-01 09:42:00,
2013-02-01 04:52:00,56.0,-99.9,30.17,NW,316,14.0,19.0,-999,-99.99,,,-99.99,,2013-02-01 09:52:00,
2013-02-01 05:01:00,55.0,-99.9,30.17,NW,313,14.0,17.0,-999,-99.99,,,-99.99,,2013-02-01 10:01:00,
2013-02-01 05:11:00,55.0,-99.9,30.18,NW,314,14.0,19.0,-999,-99.99,,,-99.99,,2013-02-01 10:11:00,
2013-02-01 05:21:00,55.0,-99.9,30.18,NW,314,16.0,20.0,-999,-99.99,,,-99.99,,2013-02-01 10:21:00,
2013-02-01 05:32:00,54.0,-99.9,30.18,NW,315,15.0,18.0,-999,-99.99,,,-99.99,,2013-02-01 10:32:00,
2013-02-01 05:43:00,54.0,-99.9,30.19,NW,314,15.0,19.0,-999,-99.99,,,-99.99,,2013-02-01 10:43:00,
2013-02-01 05:53:00,54.0,-99.9,30.19,NW,313,14.0,19.0,-999,-99.99,,,-99.99,,2013-02-01 10:53:00,
2013-02-01 06:02:00,54.0,-99.9,30.19,NW,312,15.0,18.0,-999,-99.99,,,-99.99,,2013-02-01 11:02:00,
2013-02-01 06:11:00,54.0,-99.9,30.19,NW,311,15.0,19.0,-999,-99.99,,,-99.99,,2013-02-01 11:11:00,
2013-02-01 06:22:00,53.0,-99.9,30.20,NW,316,16.0,20.0,-999,-99.99,,,-99.99,,2013-02-01 11:22:00,
2013-02-01 06:32:00,53.0,-99.9,30.20,NW,310,15.0,18.0,-999,-99.99,,,-99.99,,2013-02-01 11:32:00,
2013-02-01 06:42:00,53.0,-99.9,30.20,NW,308,16.0,19.0,-999,-99.99,,,-99.99,,2013-02-01 11:42:00,
2013-02-01 06:53:00,53.0,-99.9,30.21,NW,312,16.0,19.0,-999,-99.99,,,-99.99,,2013-02-01 11:53:00,
2013-02-01 07:03:00,53.0,-99.9,30.21,NW,312,14.0,18.0,-999,-99.99,,,-99.99,,2013-02-01 12:03:00,
2013-02-01 07:12:00,53.0,-99.9,30.21,NW,305,15.0,19.0,-999,-99.99,,,-99.99,,2013-02-01 12:12:00,
2013-02-01 07:23:00,53.0,-99.9,30.21,NW,308,14.0,18.0,-999,-99.99,,,-99.99,,2013-02-01 12:23:00,
2013-02-01 07:32:00,53.0,-99.9,30.22,NW,309,14.0,18.0,-999,-99.99,,,-99.99,,2013-02-01 12:32:00,
2013-02-01 07:42:00,53.0,-99.9,30.22,NW,311,15.0,18.0,-999,-99.99,,,-99.99,,2013-02-01 12:42:00,
2013-02-01 07:52:00,53.0,-99.9,30.22,NW,311,16.0,21.0,-999,-99.99,,,-99.99,,2013-02-01 12:52:00,
2013-02-01 08:02:00,53.0,-99.9,30.23,NW,311,16.0,18.0,-999,-99.99,,,-99.99,,2013-02-01 13:02:00,
2013-02-01 08:12:00,54.0,-99.9,30.23,NW,312,14.0,18.0,-999,-99.99,,,-99.99,,2013-02-01 13:12:00,
2013-02-01 08:22:00,53.0,-99.9,30.23,NW,310,17.0,20.0,-999,-99.99,,,-99.99,,2013-02-01 13:22:00,
2013-02-01 08:33:00,54.0,-99.9,30.24,NW,312,15.0,20.0,-999,-99.99,,,-99.99,,2013-02-01 13:33:00,
2013-02-01 08:43:00,54.0,-99.9,30.24,NW,310,16.0,19.0,-999,-99.99,,,-99.99,,2013-02-01 13:43:00,
2013-02-01 08:53:00,55.0,-99.9,30.24,NW,313,15.0,19.0,-999,-99.99,,,-99.99,,2013-02-01 13:53:00,
2013-02-01 09:04:00,55.0,-99.9,30.25,NW,319,16.0,20.0,-999,-99.99,,,-99.99,,2013-02-01 14:04:00,
2013-02-01 09:12:00,56.0,-99.9,30.26,NW,312,15.0,18.0,-999,-99.99,,,-99.99,,2013-02-01 14:12:00,
2013-02-01 09:22:00,56.0,-99.9,30.26,NW,315,13.0,17.0,-999,-99.99,,,-99.99,,2013-02-01 14:22:00,
2013-02-01 09:33:00,57.0,-99.9,30.26,NW,321,16.0,19.0,-999,-99.99,,,-99.99,,2013-02-01 14:33:00,
2013-02-01 09:42:00,58.0,-99.9,30.26,NW,321,13.0,18.0,-999,-99.99,,,-99.99,,2013-02-01 14:42:00,
2013-02-01 09:53:00,59.0,-99.9,30.27,NW,323,13.0,17.0,-999,-99.99,,,-99.99,,2013-02-01 14:53:00,
2013-02-01 10:03:00,60.0,-99.9,30.27,NW,326,13.0,16.0,-999,-99.99,,,-99.99,,2013-02-01 15:03:00,
2013-02-01 10:12:00,61.0,-99.9,30.28,NW,323,13.0,16.0,-999,-99.99,,,-99.99,,2013-02-01 15:12:00,
2013-02-01 10:22:00,62.0,-99.9,30.27,NW,324,14.0,17.0,-999,-99.99,,,-99.99,,2013-02-01 15:22:00,
2013-02-01 10:33:00,62.0,-99.9,30.28,NNW,329,13.0,17.0,-999,-99.99,,,-99.99,,2013-02-01 15:33:00,
2013-02-01 10:42:00,63.0,-99.9,30.28,NNW,327,13.0,18.0,-999,-99.99,,,-99.99,,2013-02-01 15:42:00,
2013-02-01 10:52:00,63.0,-99.9,30.28,NNW,332,11.0,17.0,-999,-99.99,,,-99.99,,2013-02-01 15:52:00,
2013-02-01 11:03:00,64.0,-99.9,30.27,NNW,344,14.0,22.0,-999,-99.99,,,-99.99,,2013-02-01 16:03:00,
2013-02-01 11:12:00,64.0,-99.9,30.27,NNW,348,18.0,20.0,-999,-99.99,,,-99.99,,2013-02-01 16:12:00,
2013-02-01 11:22:00,65.0,-99.9,30.27,NNW,341,15.0,19.0,-999,-99.99,,,-99.99,,2013-02-01 16:22:00,
2013-02-01 11:33:00,66.0,-99.9,30.27,North,354,16.0,18.0,-999,-99.99,,,-99.99,,2013-02-01 16:33:00,
2013-02-01 11:43:00,66.0,-99.9,30.27,NNW,345,16.0,22.0,-999,-99.99,,,-99.99,,2013-02-01 16:43:00,
2013-02-01 11:53:00,66.0,-99.9,30.27,NNW,344,17.0,22.0,-999,-99.99,,,-99.99,,2013-02-01 16:53:00,
2013-02-01 12:03:00,67.0,-99.9,30.27,North,353,20.0,26.0,-999,-99.99,,,-99.99,,2013-02-01 17:03:00,
2013-02-01 12:12:00,67.0,-99.9,30.26,North,10,19.0,21.0,-999,-99.99,,,-99.99,,2013-02-01 17:12:00,
2013-02-01 12:22:00,67.0,-99.9,30.26,NNE,16,22.0,24.0,-999,-99.99,,,-99.99,,2013-02-01 17:22:00,
2013-02-01 12:32:00,67.0,-99.9,30.26,North,2,22.0,26.0,-999,-99.99,,,-99.99,,2013-02-01 17:32:00,
2013-02-01 12:42:00,67.0,-99.9,30.27,North,359,18.0,26.0,-999,-99.99,,,-99.99,,2013-02-01 17:42:00,
2013-02-01 12:53:00,67.0,-99.9,30.26,NNW,348,20.0,25.0,-999,-99.99,,,-99.99,,2013-02-01 17:53:00,
2013-02-01 13:03:00,67.0,-99.9,30.26,North,352,21.0,25.0,-999,-99.99,,,-99.99,,2013-02-01 18:03:00,
2013-02-01 13:13:00,67.0,-99.9,30.25,North,11,21.0,26.0,-999,-99.99,,,-99.99,,2013-02-01 18:13:00,
2013-02-01 13:23:00,67.0,-99.9,30.25,North,5,22.0,26.0,-999,-99.99,,,-99.99,,2013-02-01 18:23:00,
2013-02-01 13:33:00,67.0,-99.9,30.24,NNW,348,19.0,26.0,-999,-99.99,,,-99.99,,2013-02-01 18:33:00,
2013-02-01 13:42:00,67.0,-99.9,30.24,North,356,20.0,24.0,-999,-99.99,,,-99.99,,2013-02-01 18:42:00,
2013-02-01 13:53:00,67.0,-99.9,30.24,North,1,23.0,28.0,-999,-99.99,,,-99.99,,2013-02-01 18:53:00,
2013-02-01 14:03:00,68.0,-99.9,30.24,North,1,22.0,26.0,-999,-99.99,,,-99.99,,2013-02-01 19:03:00,
2013-02-01 14:12:00,68.0,-99.9,30.23,North,6,24.0,29.0,-999,-99.99,,,-99.99,,2013-02-01 19:12:00,
2013-02-01 14:22:00,68.0,-99.9,30.23,North,6,26.0,29.0,-999,-99.99,,,-99.99,,2013-02-01 19:22:00,
2013-02-01 14:33:00,68.0,-99.9,30.23,North,8,25.0,30.0,-999,-99.99,,,-99.99,,2013-02-01 19:33:00,
2013-02-01 14:42:00,68.0,-99.9,30.22,North,359,24.0,28.0,-999,-99.99,,,-99.99,,2013-02-01 19:42:00,
2013-02-01 14:52:00,68.0,-99.9,30.22,North,355,24.0,32.0,-999,-99.99,,,-99.99,,2013-02-01 19:52:00,
2013-02-01 15:02:00,68.0,-99.9,30.22,North,10,21.0,29.0,-999,-99.99,,,-99.99,,2013-02-01 20:02:00,
2013-02-01 15:12:00,69.0,-99.9,30.23,NNE,13,21.0,25.0,-999,-99.99,,,-99.99,,2013-02-01 20:12:00,
2013-02-01 15:22:00,69.0,-99.9,30.22,NNE,16,19.0,24.0,-999,-99.99,,,-99.99,,2013-02-01 20:22:00,
2013-02-01 15:32:00,69.0,-99.9,30.23,North,10,21.0,26.0,-999,-99.99,,,-99.99,,2013-02-01 20:32:00,
2013-02-01 15:42:00,69.0,-99.9,30.22,North,9,21.0,22.0,-999,-99.99,,,-99.99,,2013-02-01 20:42:00,
2013-02-01 15:52:00,68.0,-99.9,30.22,North,9,22.0,24.0,-999,-99.99,,,-99.99,,2013-02-01 20:52:00,
2013-02-01 16:02:00,68.0,-99.9,30.22,North,5,25.0,29.0,-999,-99.99,,,-99.99,,2013-02-01 21:02:00,
2013-02-01 16:12:00,68.0,-99.9,30.22,North,4,24.0,30.0,-999,-99.99,,,-99.99,,2013-02-01 21:12:00,
2013-02-01 16:22:00,67.0,-99.9,30.22,North,9,24.0,28.0,-999,-99.99,,,-99.99,,2013-02-01 21:22:00,
2013-02-01 16:32:00,67.0,-99.9,30.22,North,9,23.0,28.0,-999,-99.99,,,-99.99,,2013-02-01 21:32:00,
2013-02-01 16:42:00,68.0,-99.9,30.23,North,4,24.0,27.0,-999,-99.99,,,-99.99,,2013-02-01 21:42:00,
2013-02-01 16:53:00,67.0,-99.9,30.23,North,8,22.0,27.0,-999,-99.99,,,-99.99,,2013-02-01 21:53:00,
2013-02-01 17:03:00,67.0,-99.9,30.23,North,8,21.0,28.0,-999,-99.99,,,-99.99,,2013-02-01 22:03:00,
2013-02-01 17:11:00,67.0,-99.9,30.23,North,353,23.0,28.0,-999,-99.99,,,-99.99,,2013-02-01 22:11:00,
2013-02-01 17:22:00,67.0,-99.9,30.23,NNW,343,20.0,24.0,-999,-99.99,,,-99.99,,2013-02-01 22:22:00,
2013-02-01 17:32:00,67.0,-99.9,30.23,NNW,345,19.0,24.0,-999,-99.99,,,-99.99,,2013-02-01 22:32:00,
2013-02-01 17:42:00,67.0,-99.9,30.24,NNW,345,20.0,27.0,-999,-99.99,,,-99.99,,2013-02-01 22:42:00,
2013-02-01 17:52:00,67.0,-99.9,30.24,North,3,23.0,26.0,-999,-99.99,,,-99.99,,2013-02-01 22:52:00,
2013-02-01 18:02:00,67.0,-99.9,30.23,NNW,343,19.0,22.0,-999,-99.99,,,-99.99,,2013-02-01 23:02:00,
2013-02-01 18:11:00,67.0,-99.9,30.23,North,352,19.0,23.0,-999,-99.99,,,-99.99,,2013-02-01 23:11:00,
2013-02-01 18:22:00,69.0,-99.9,30.23,North,10,20.0,24.0,-999,-99.99,,,-99.99,,2013-02-01 23:22:00,
2013-02-01 18:32:00,69.0,-99.9,30.23,NNE,15,17.0,20.0,-999,-99.99,,,-99.99,,2013-02-01 23:32:00,
2013-02-01 18:42:00,69.0,-99.9,30.23,NNE,29,21.0,25.0,-999,-99.99,,,-99.99,,2013-02-01 23:42:00,
2013-02-01 18:52:00,69.0,-99.9,30.24,NNE,33,15.0,22.0,-999,-99.99,,,-99.99,,2013-02-01 23:52:00,
2013-02-01 19:02:00,68.0,-99.9,30.24,NNE,15,20.0,25.0,-999,-99.99,,,-99.99,,2013-02-02 00:02:00,
2013-02-01 19:11:00,69.0,-99.9,30.24,NNE,23,20.0,22.0,-999,-99.99,,,-99.99,,2013-02-02 00:11:00,
2013-02-01 19:22:00,69.0,-99.9,30.24,NNE,33,18.0,22.0,-999,-99.99,,,-99.99,,2013-02-02 00:22:00,
2013-02-01 19:32:00,68.0,-99.9,30.24,NNE,17,18.0,22.0,-999,-99.99,,,-99.99,,2013-02-02 00:32:00,
2013-02-01 19:42:00,69.0,-99.9,30.24,NNE,29,17.0,21.0,-999,-99.99,,,-99.99,,2013-02-02 00:42:00,
2013-02-01 19:52:00,68.0,-99.9,30.24,NNE,33,17.0,21.0,-999,-99.99,,,-99.99,,2013-02-02 00:52:00,
2013-02-01 20:03:00,68.0,-99.9,30.24,NNE,25,18.0,25.0,-999,-99.99,,,-99.99,,2013-02-02 01:03:00,
2013-02-01 20:11:00,68.0,-99.9,30.24,NNE,27,17.0,20.0,-999,-99.99,,,-99.99,,2013-02-02 01:11:00,
2013-02-01 20:22:00,68.0,-99.9,30.24,NNE,28,20.0,23.0,-999,-99.99,,,-99.99,,2013-02-02 01:22:00,
2013-02-01 20:32:00,68.0,-99.9,30.24,NNE,15,21.0,26.0,-999,-99.99,,,-99.99,,2013-02-02 01:32:00,
2013-02-01 20:42:00,68.0,-99.9,30.24,NNE,13,19.0,22.0,-999,-99.99,,,-99.99,,2013-02-02 01:42:00,
2013-02-01 20:52:00,68.0,-99.9,30.24,NNE,15,19.0,21.0,-999,-99.99,,,-99.99,,2013-02-02 01:52:00,
2013-02-01 21:01:00,68.0,-99.9,30.24,NNE,29,17.0,21.0,-999,-99.99,,,-99.99,,2013-02-02 02:01:00,
2013-02-01 21:11:00,68.0,-99.9,30.24,NE,37,16.0,21.0,-999,-99.99,,,-99.99,,2013-02-02 02:11:00,
2013-02-01 21:22:00,68.0,-99.9,30.24,NNE,23,15.0,21.0,-999,-99.99,,,-99.99,,2013-02-02 02:22:00,
2013-02-01 21:32:00,68.0,-99.9,30.24,NE,41,19.0,23.0,-999,-99.99,,,-99.99,,2013-02-02 02:32:00,
2013-02-01 21:42:00,68.0,-99.9,30.24,NNE,28,17.0,21.0,-999,-99.99,,,-99.99,,2013-02-02 02:42:00,
2013-02-01 21:52:00,68.0,-99.9,30.25,NE,37,17.0,21.0,-999,-99.99,,,-99.99,,2013-02-02 02:52:00,
2013-02-01 22:02:00,68.0,-99.9,30.24,NNE,31,15.0,19.0,-999,-99.99,,,-99.99,,2013-02-02 03:02:00,
2013-02-01 22:11:00,68.0,-99.9,30.24,NE,39,15.0,18.0,-999,-99.99,,,-99.99,,2013-02-02 03:11:00,
2013-02-01 22:22:00,68.0,-99.9,30.24,NNE,25,14.0,17.0,-999,-99.99,,,-99.99,,2013-02-02 03:22:00,
2013-02-01 22:32:00,69.0,-99.9,30.25,NNE,21,16.0,22.0,-999,-99.99,,,-99.99,,2013-02-02 03:32:00,
2013-02-01 22:42:00,68.0,-99.9,30.24,NNE,29,15.0,19.0,-999,-99.99,,,-99.99,,2013-02-02 03:42:00,
2013-02-01 22:52:00,68.0,-99.9,30.25,NNE,29,17.0,20.0,-999,-99.99,,,-99.99,,2013-02-02 03:52:00,
2013-02-01 23:02:00,68.0,-99.9,30.25,NNE,29,15.0,17.0,-999,-99.99,,,-99.99,,2013-02-02 04:02:00,
2013-02-01 23:11:00,68.0,-99.9,30.25,NE,38,15.0,20.0,-999,-99.99,,,-99.99,,2013-02-02 04:11:00,
2013-02-01 23:22:00,68.0,-99.9,30.25,NNE,29,16.0,19.0,-999,-99.99,,,-99.99,,2013-02-02 04:22:00,
2013-02-01 23:33:00,68.0,-99.9,30.25,NNE,21,16.0,19.0,-999,-99.99,,,-99.99,,2013-02-02 04:33:00,
2013-02-01 23:42:00,68.0,-99.9,30.25,NE,34,16.0,19.0,-999,-99.99,,,-99.99,,2013-02-02 04:42:00,
2013-02-01 23:52:00,68.0,-99.9,30.25,NNE,31,13.0,20.0,-999,-99.99,,,-99.99,,2013-02-02 04:52:00,